Date String (YYYY-MM-DD hh:mm:ss) UTC,Instrument flags,absolute air pressure of the measurement (hPa),sample flow rate (lpm),inlet stack bypass flow (lpm),air temperature of the measurement (°C),ambient temperature measured by the external sensor (°C),aerosol sample conditioner tube jacket temperature (°C),OPC LED temperature (°C),internal box temperature (°C),relative humidity of the measurement (%),span deviation,mass concentration of particles derived from Lorenz-Mie calculation of OPC scattering (μg/m³),mass concentration of particles derived from Lorenz-Mie calculation of OPC scattering (μg/m³),mass concentration of particles derived from Lorenz-Mie calculation of OPC scattering (μg/m³)
DateTimeUTC,F1_M11,P_M11,Q1_M11,Q2_M11,T1_M11,T2_M11,T3_M11,T4_M11,T5_M11,U1_M11,ZSPAN_M11,X2_M11,X0_M11,X1_M11
2024-01-06 05:00:00,SystemResetWarning,0823.6,4.99,000.00,021.2,020.4,000.0,029.6,022.4,9.4,0000.0,0003.61,0007.28,0003.32
2024-01-06 05:01:00,SystemResetWarning,0823.6,5.00,000.00,021.2,020.4,000.0,029.6,022.4,9.4,0000.0,0003.62,0007.39,0003.32
2024-01-06 05:02:00,SystemResetWarning,0823.6,5.01,000.00,021.2,020.4,000.0,029.6,022.4,9.5,0000.0,0003.64,0007.45,0003.31
2024-01-06 05:03:00,SystemResetWarning,0823.6,5.00,000.00,021.2,020.4,000.0,029.6,022.3,9.5,0000.0,0003.66,0007.66,0003.31
2024-01-06 05:04:00,SystemResetWarning,0823.6,5.00,000.00,021.1,020.4,000.0,029.6,022.3,9.5,0000.0,0003.64,0007.70,0003.30
2024-01-06 05:05:00,SystemResetWarning,0823.6,5.00,000.00,021.1,020.4,000.0,029.5,022.3,9.5,0000.0,0003.65,0007.68,0003.31
2024-01-06 05:06:00,SystemResetWarning,0823.6,5.00,000.00,021.1,020.4,000.0,029.5,022.4,9.5,0000.0,0003.64,0007.73,0003.30
2024-01-06 05:07:00,SystemResetWarning,0823.6,5.00,000.00,021.1,020.4,000.0,029.5,022.4,9.5,0000.0,0003.62,0007.69,0003.29
2024-01-06 05:08:00,SystemResetWarning,0823.6,5.00,000.00,021.1,020.4,000.0,029.5,022.3,9.5,0000.0,0003.64,0007.79,0003.29
2024-01-06 05:09:00,SystemResetWarning,0823.6,5.00,000.00,021.1,020.4,000.0,029.5,022.3,9.5,0000.0,0003.65,0007.80,0003.29
2024-01-06 05:10:00,SystemResetWarning,0823.7,5.00,000.00,021.1,020.3,000.0,029.5,022.3,9.5,0000.0,0003.65,0006.97,0003.30
2024-01-06 05:11:00,SystemResetWarning,0823.7,5.00,000.00,021.1,020.3,000.0,029.5,022.3,9.5,0000.0,0003.65,0008.03,0003.29
2024-01-06 05:12:00,SystemResetWarning,0823.7,5.00,000.00,021.1,020.3,000.0,029.5,022.3,9.5,0000.0,0003.65,0008.15,0003.27
2024-01-06 05:13:00,SystemResetWarning,0823.8,5.00,000.00,021.1,020.3,000.0,029.5,022.4,9.5,0000.0,0003.63,0008.12,0003.26
2024-01-06 05:14:00,SystemResetWarning,0823.7,4.99,000.00,021.1,020.3,000.0,029.5,022.3,9.6,0000.0,0003.59,0007.96,0003.24
2024-01-06 05:15:00,SystemResetWarning,0823.7,4.99,000.00,021.1,020.3,000.0,029.5,022.3,9.6,0000.0,0003.59,0007.71,0003.22
2024-01-06 05:16:00,SystemResetWarning,0823.7,5.00,000.00,021.1,020.3,000.0,029.5,022.3,9.6,0000.0,0003.55,0007.67,0003.19
2024-01-06 05:17:00,SystemResetWarning,0823.7,5.00,000.00,021.1,020.3,000.0,029.5,022.3,9.6,0000.0,0003.50,0007.51,0003.16
2024-01-06 05:18:00,SystemResetWarning,0823.7,4.99,000.00,021.1,020.3,000.0,029.5,022.3,9.6,0000.0,0003.49,0007.52,0003.14
2024-01-06 05:19:00,SystemResetWarning,0823.7,5.00,000.00,021.1,020.3,000.0,029.5,022.3,9.6,0000.0,0003.41,0007.34,0003.10
2024-01-06 05:20:00,SystemResetWarning,0823.7,5.00,000.00,021.1,020.2,000.0,029.5,022.2,9.6,0000.0,0003.35,0007.47,0003.05
2024-01-06 05:21:00,SystemResetWarning,0823.7,5.00,000.00,021.1,020.2,000.0,029.5,022.2,9.6,0000.0,0003.31,0007.89,0002.97
2024-01-06 05:22:00,SystemResetWarning,0823.7,5.00,000.00,021.1,020.2,000.0,029.4,022.2,9.7,0000.0,0003.28,0007.32,0002.91
2024-01-06 05:23:00,SystemResetWarning,0823.7,5.00,000.00,021.0,020.2,000.0,029.4,022.2,9.7,0000.0,0003.23,0007.43,0002.86
2024-01-06 05:24:00,SystemResetWarning,0823.7,5.00,000.00,021.1,020.3,000.0,029.4,022.2,9.7,0000.0,0003.21,0007.41,0002.82
2024-01-06 05:25:00,SystemResetWarning,0823.8,5.00,000.00,021.1,020.3,000.0,029.4,022.3,9.7,0000.0,0003.19,0007.41,0002.79
2024-01-06 05:26:00,SystemResetWarning,0823.8,5.01,000.00,021.0,020.3,000.0,029.4,022.3,9.8,0000.0,0003.19,0007.42,0002.78
2024-01-06 05:27:00,SystemResetWarning,0823.8,5.00,000.00,021.0,020.3,000.0,029.4,022.3,9.8,0000.0,0003.20,0007.46,0002.79
2024-01-06 05:28:00,SystemResetWarning,0823.7,5.01,000.00,021.0,020.3,000.0,029.4,022.3,9.8,0000.0,0003.24,0007.54,0002.82
2024-01-06 05:29:00,SystemResetWarning,0823.8,5.00,000.00,021.0,020.3,000.0,029.4,022.3,9.9,0000.0,0003.26,0008.29,0002.85
2024-01-06 05:30:00,SystemResetWarning,0823.8,4.99,000.00,021.0,020.3,000.0,029.4,022.3,9.9,0000.0,0003.31,0008.94,0002.91
2024-01-06 05:31:00,SystemResetWarning,0823.8,4.99,000.00,021.0,020.3,000.0,029.4,022.2,9.9,0000.0,0003.37,0009.06,0002.95
2024-01-06 05:32:00,SystemResetWarning,0823.8,5.01,000.00,021.0,020.2,000.0,029.4,022.2,9.9,0000.0,0003.41,0008.70,0003.00
2024-01-06 05:33:00,SystemResetWarning,0823.8,5.01,000.00,021.0,020.2,000.0,029.4,022.2,9.9,0000.0,0003.45,0008.28,0003.06
2024-01-06 05:34:00,SystemResetWarning,0823.8,5.00,000.00,021.0,020.2,000.0,029.4,022.2,9.9,0000.0,0003.47,0007.85,0003.10
2024-01-06 05:35:00,SystemResetWarning,0823.8,5.00,000.00,021.0,020.3,000.0,029.4,022.2,9.9,0000.0,0003.49,0008.10,0003.12
2024-01-06 05:36:00,SystemResetWarning,0823.8,5.00,000.00,021.0,020.2,000.0,029.4,022.1,9.9,0000.0,0003.53,0008.18,0003.14
2024-01-06 05:37:00,SystemResetWarning,0823.8,4.99,000.00,021.0,020.2,000.0,029.4,022.1,9.9,0000.0,0003.55,0008.34,0003.15
2024-01-06 05:38:00,SystemResetWarning,0823.8,5.00,000.00,021.0,020.2,000.0,029.3,022.0,9.9,0000.0,0003.54,0008.43,0003.15
2024-01-06 05:39:00,SystemResetWarning,0823.8,5.00,000.00,021.0,020.2,000.0,029.3,022.0,10.0,0000.0,0003.52,0008.35,0003.13
2024-01-06 05:40:00,SystemResetWarning,0823.8,4.99,000.00,020.9,020.1,000.0,029.3,021.9,10.0,0000.0,0003.51,0007.64,0003.12
2024-01-06 05:41:00,SystemResetWarning,0823.8,4.99,000.00,020.9,020.1,000.0,029.3,022.0,10.0,0000.0,0003.47,0007.48,0003.10
2024-01-06 05:42:00,SystemResetWarning,0823.8,4.99,000.00,020.9,020.0,000.0,029.3,022.0,10.0,0000.0,0003.43,0007.03,0003.09
2024-01-06 05:43:00,SystemResetWarning,0823.8,5.00,000.00,020.9,020.0,000.0,029.3,021.9,10.0,0000.0,0003.42,0007.45,0003.09
2024-01-06 05:44:00,SystemResetWarning,0823.8,5.00,000.00,020.9,019.9,000.0,029.3,021.9,10.0,0000.0,0003.40,0007.81,0003.07
2024-01-06 05:45:00,SystemResetWarning,0823.8,5.01,000.00,020.9,019.9,000.0,029.3,021.9,10.0,0000.0,0003.39,0007.86,0003.06
2024-01-06 05:46:00,SystemResetWarning,0823.8,5.00,000.00,020.8,019.8,000.0,029.2,021.9,10.1,0000.0,0003.37,0007.62,0003.04
2024-01-06 05:47:00,SystemResetWarning,0823.8,5.00,000.00,020.8,019.8,000.0,029.2,021.9,10.1,0000.0,0003.35,0007.56,0003.03
2024-01-06 05:48:00,SystemResetWarning,0823.8,5.00,000.00,020.8,019.8,000.0,029.2,021.9,10.1,0000.0,0003.33,0007.40,0003.02
2024-01-06 05:49:00,SystemResetWarning,0823.8,5.00,000.00,020.8,019.8,000.0,029.2,022.0,10.1,0000.0,0003.33,0007.32,0003.02
2024-01-06 05:50:00,SystemResetWarning,0823.8,5.00,000.00,020.8,019.8,000.0,029.2,022.0,10.1,0000.0,0003.33,0007.88,0003.03
2024-01-06 05:51:00,SystemResetWarning,0823.8,5.00,000.00,020.8,019.8,000.0,029.2,022.0,10.1,0000.0,0003.33,0007.88,0003.04
2024-01-06 05:52:00,SystemResetWarning,0823.8,5.00,000.00,020.8,019.8,000.0,029.2,021.9,10.1,0000.0,0003.34,0007.47,0003.06
2024-01-06 05:53:00,SystemResetWarning,0823.9,4.99,000.00,020.8,019.8,000.0,029.2,021.9,10.2,0000.0,0003.37,0007.89,0003.06
2024-01-06 05:54:00,SystemResetWarning,0823.9,4.99,000.00,020.8,019.8,000.0,029.2,021.9,10.2,0000.0,0003.37,0007.86,0003.08
2024-01-06 05:55:00,SystemResetWarning,0823.9,5.00,000.00,020.7,019.7,000.0,029.2,021.8,10.2,0000.0,0003.40,0007.45,0003.10
2024-01-06 05:56:00,SystemResetWarning,0823.9,5.00,000.00,020.7,019.7,000.0,029.1,021.8,10.3,0000.0,0003.41,0007.50,0003.11
2024-01-06 05:57:00,SystemResetWarning,0823.9,5.01,000.00,020.7,019.6,000.0,029.1,021.7,10.3,0000.0,0003.43,0007.87,0003.13
2024-01-06 05:58:00,SystemResetWarning,0823.9,5.01,000.00,020.7,019.6,000.0,029.1,021.7,10.3,0000.0,0003.44,0008.39,0003.15
2024-01-06 05:59:00,SystemResetWarning,0823.9,5.01,000.00,020.7,019.6,000.0,029.1,021.8,10.3,0000.0,0003.48,0008.96,0003.17
